EW3148 Weather Reports


time (UTC)temp
F
wind
direction
speed
knots
gust
knots
rain 1hr
in
rain 24hr
in
rain mn
in
humidity
%
barometer
mb
20260831015424 90 197 3.5 7.8 0.00 0.00 0.00 54 1010.5
20260831014435 90 176 2.6 8.7 0.00 0.00 0.00 53 1010.4
20260831013402 90 155 1.7 8.7 0.00 0.00 0.00 51 1010.2
20260831012343 91 138 0.9 2.6 0.00 0.00 0.00 49 1010.1
20260831010222 92 123 0.9 4.3 0.00 0.00 0.00 47 1010.0
20260831005207 93 140 0.9 6.1 0.00 0.00 0.00 46 1009.9
20260831004206 94 105 1.7 7.0 0.00 0.00 0.00 45 1010.0
20260831003203 94 195 1.7 7.0 0.00 0.00 0.00 43 1009.9
20260831002207 95 148 1.7 5.2 0.00 0.00 0.00 43 1009.8
20260831001137 95 179 2.6 6.1 0.00 0.00 0.00 42 1009.8
20260831000112 96 171 2.6 7.8 0.00 0.00 0.00 41 1009.8
20260830235048 97 165 2.6 7.0 0.00 0.00 0.00 40 1009.8
20260830234022 97 140 1.7 5.2 0.00 0.00 0.00 40 1010.0
20260830232951 97 160 2.6 7.8 0.00 0.00 0.00 39 1009.9
20260830231929 97 106 2.6 7.8 0.00 0.00 0.00 39 1009.9
20260830230912 98 107 3.5 9.6 0.00 0.00 0.00 39 1010.0
20260830225848 98 107 2.6 9.6 0.00 0.00 0.00 40 1010.1
20260830224910 98 109 1.7 6.1 0.00 0.00 0.00 40 1010.0
20260830223910 98 159 2.6 11.3 0.00 0.00 0.00 40 1010.1
20260830222916 98 180 2.6 11.3 0.00 0.00 0.00 40 1010.2
20260830221909 98 134 2.6 11.3 0.00 0.00 0.00 40 1010.2
20260830220847 97 186 4.3 11.3 0.00 0.00 0.00 40 1010.2
20260830215822 98 143 3.5 9.6 0.00 0.00 0.00 40 1010.4
20260830213727 98 112 2.6 10.4 0.00 0.00 0.00 41 1010.5
20260830212705 97 91 3.5 13.0 0.00 0.00 0.00 43 1010.7
20260830211727 97 211 4.3 13.0 0.00 0.00 0.00 43 1010.7
20260830210709 97 142 3.5 9.6 0.00 0.00 0.00 44 1011.0
20260830205723 97 163 3.5 8.7 0.00 0.00 0.00 44 1011.2
20260830202417 96 195 2.6 10.4 0.00 0.00 0.00 47 1011.6
20260830201439 97 138 4.3 10.4 0.00 0.00 0.00 45 1011.6
20260830200415 97 219 3.5 10.4 0.00 0.00 0.00 46 1011.7
20260830195407 96 115 2.6 11.3 0.00 0.00 0.00 46 1011.9
20260830194341 96 194 4.3 11.3 0.00 0.00 0.00 47 1012.2
20260830193401 97 102 2.6 10.4 0.00 0.00 0.00 46 1012.3
20260830192353 96 203 3.5 9.6 0.00 0.00 0.00 47 1012.5
20260830191335 95 219 2.6 8.7 0.00 0.00 0.00 48 1012.6
20260830190315 96 205 2.6 11.3 0.00 0.00 0.00 48 1012.7
20260830185309 96 230 2.6 11.3 0.00 0.00 0.00 49 1013.0
20260830184241 94 169 1.7 7.0 0.00 0.00 0.00 49 1013.1
20260830183236 94 198 4.3 12.2 0.00 0.00 0.00 50 1013.3
20260830182226 94 229 3.5 12.2 0.00 0.00 0.00 49 1013.4
20260830181222 94 205 2.6 9.6 0.00 0.00 0.00 50 1013.5
20260830180213 94 186 1.7 9.6 0.00 0.00 0.00 51 1013.7
20260830175230 93 129 2.6 10.4 0.00 0.00 0.00 51 1014.0
20260830174225 93 121 3.5 10.4 0.00 0.00 0.00 52 1014.2
20260830173158 93 196 3.5 9.6 0.00 0.00 0.00 52 1014.2
20260830172215 93 140 2.6 9.6 0.00 0.00 0.00 51 1014.3
20260830171200 92 252 2.6 11.3 0.00 0.00 0.00 55 1014.4
20260830170220 91 138 3.5 11.3 0.00 0.00 0.00 55 1014.4
20260830165210 90 153 0.9 7.0 0.00 0.00 0.00 58 1014.5
20260830163031 89 202 1.7 8.7 0.00 0.00 0.00 61 1014.7
20260830162041 89 194 3.5 8.7 0.00 0.00 0.00 60 1014.7
20260830161018 89 170 1.7 7.0 0.00 0.00 0.00 61 1014.7
20260830160005 88 146 1.7 7.8 0.00 0.00 0.00 63 1014.6
20260830154954 87 167 2.6 11.3 0.00 0.00 0.00 63 1014.6
20260830154004 87 196 3.5 11.3 0.00 0.00 0.00 63 1014.6
20260830153004 87 211 0.9 6.1 0.00 0.00 0.00 67 1014.5
20260830150857 86 181 1.7 9.6 0.00 0.00 0.00 70 1014.4
20260830145849 85 286 1.7 7.0 0.00 0.00 0.00 73 1014.4
20260830144829 84 240 1.7 7.0 0.00 0.00 0.00 75 1014.4
20260830143810 83 209 3.5 8.7 0.00 0.00 0.00 78 1014.5
20260830142739 82 182 1.7 9.6 0.00 0.00 0.00 79 1014.5
20260830141720 81 213 1.7 8.7 0.00 0.00 0.00 81 1014.5
20260830140653 81 197 1.7 8.7 0.00 0.00 0.00 82 1014.3
20260830135643 80 179 1.7 8.7 0.00 0.00 0.00 84 1014.2
20260830133446 78 219 1.7 7.0 0.00 0.00 0.00 87 1014.1
20260830132446 77 183 0.9 3.5 0.00 0.00 0.00 89 1014.0
20260830130333 76 211 0.9 6.1 0.00 0.00 0.00 91 1013.9
20260830125313 75 188 1.7 5.2 0.00 0.00 0.00 91 1013.8
20260830124335 75 185 1.7 4.3 0.00 0.00 0.00 91 1013.8
20260830123302 75 196 1.7 7.0 0.00 0.00 0.00 90 1013.7
20260830121106 75 215 1.7 6.1 0.00 0.00 0.00 90 1013.3
20260830114956 76 221 1.7 4.3 0.00 0.00 0.00 89 1013.4
20260830114008 76 164 1.7 7.0 0.00 0.00 0.00 89 1013.4
20260830112954 76 186 1.7 7.0 0.00 0.00 0.00 89 1013.2
20260830111926 76 172 1.7 6.1 0.00 0.00 0.00 89 1013.1
20260830105825 76 187 1.7 7.0 0.00 0.00 0.00 88 1013.1
20260830104800 76 188 1.7 7.0 0.00 0.00 0.00 87 1013.0
20260830103726 76 221 1.7 5.2 0.00 0.00 0.00 87 1013.0
20260830102742 76 196 1.7 5.2 0.00 0.00 0.00 86 1012.9
20260830101742 76 210 1.7 5.2 0.00 0.00 0.00 86 1013.0
20260830100729 76 178 1.7 6.1 0.00 0.00 0.00 85 1013.0
20260830095731 76 220 1.7 6.1 0.00 0.00 0.00 85 1013.0
20260830094716 76 182 2.6 5.2 0.00 0.00 0.00 84 1012.9
20260830093652 76 184 1.7 6.1 0.00 0.00 0.00 83 1013.0
20260830091524 77 232 2.6 7.8 0.00 0.00 0.00 82 1013.0
20260830090532 77 186 2.6 7.8 0.00 0.00 0.00 81 1013.0
20260830085552 77 207 2.6 7.8 0.00 0.00 0.00 80 1013.0
20260830084530 77 192 3.5 7.8 0.00 0.00 0.00 80 1013.0
20260830083503 78 175 2.6 7.8 0.00 0.00 0.00 80 1013.0
20260830080200 78 198 2.6 8.7 0.00 0.00 0.00 78 1013.2
20260830075205 78 162 2.6 8.7 0.00 0.00 0.00 78 1013.4
20260830074137 79 170 3.5 7.8 0.00 0.00 0.00 77 1013.4
20260830073102 79 140 3.5 7.8 0.00 0.00 0.00 77 1013.4
20260830072055 79 167 3.5 7.0 0.00 0.00 0.00 76 1013.5
20260830071033 79 193 3.5 7.8 0.00 0.00 0.00 76 1013.5
20260830070045 80 171 2.6 8.7 0.00 0.00 0.00 75 1013.5
20260830063856 80 209 2.6 7.8 0.00 0.00 0.00 75 1013.5
20260830062838 80 174 2.6 7.0 0.00 0.00 0.00 75 1013.4
20260830061809 81 171 3.5 7.8 0.00 0.00 0.00 75 1013.5
20260830060755 81 190 3.5 9.6 0.00 0.00 0.00 74 1013.5
20260830055723 81 187 3.5 7.0 0.00 0.00 0.00 74 1013.5
20260830054744 82 172 2.6 7.8 0.00 0.00 0.00 73 1013.3
20260830053745 82 178 2.6 8.7 0.00 0.00 0.00 72 1013.3
20260830052757 82 183 2.6 8.7 0.00 0.00 0.00 72 1013.5
20260830051819 83 204 2.6 7.0 0.00 0.00 0.00 71 1013.5
20260830050757 83 183 2.6 7.0 0.00 0.00 0.00 70 1013.4
20260830045729 83 170 3.5 7.0 0.00 0.00 0.00 70 1013.5
20260830044746 84 170 3.5 7.0 0.00 0.00 0.00 69 1013.6
20260830043729 84 159 3.5 8.7 0.00 0.00 0.00 68 1013.4
20260830042737 85 104 2.6 9.6 0.00 0.00 0.00 67 1013.5
20260830040531 86 207 3.5 8.7 0.00 0.00 0.00 65 1013.5
20260830034415 87 178 4.3 9.6 0.00 0.00 0.00 63 1013.4
20260830033421 87 198 4.3 9.6 0.00 0.00 0.00 62 1013.4
20260830032351 87 167 3.5 9.6 0.00 0.00 0.00 61 1013.2
20260830031348 88 178 1.7 12.2 0.00 0.00 0.00 59 1013.1
20260830025157 88 136 1.7 5.2 0.00 0.00 0.00 56 1012.9
20260830024142 88 120 0.9 6.1 0.00 0.00 0.00 55 1012.8
20260830023137 89 137 1.7 6.1 0.00 0.00 0.00 54 1012.5
20260830022143 89 128 0.9 5.2 0.00 0.00 0.00 54 1012.3
20260830021121 89 119 0.9 2.6 0.00 0.00 0.00 54 1012.1